EW4529 Weather Reports


Display with metric or nautical units.
time (UTC)temp
F
wind
direction
speed
MPH
gust
MPH
rain 1hr
in
rain 24hr
in
rain mn
in
humidity
%
barometer
mb
20260901203324 93 296 0.0 2.0 0.00 0.00 0.00 62 1013.8
20260901202351 92 142 0.0 4.0 0.00 0.00 0.00 61 1013.8
20260901201335 94 12 1.0 4.0 0.00 0.00 0.00 58 1013.8
20260901200323 94 168 0.0 3.0 0.00 0.00 0.00 60 1013.7
20260901194321 94 18 1.0 5.0 0.00 0.00 0.00 59 1013.9
20260901193311 93 19 0.0 5.0 0.00 0.00 0.00 57 1014.0
20260901192337 93 27 2.0 6.0 0.00 0.00 0.00 59 1014.1
20260901191335 93 268 0.0 6.0 0.00 0.00 0.00 58 1014.2
20260901190327 93 156 1.0 5.0 0.00 0.00 0.00 58 1014.1
20260901185353 93 30 0.0 4.0 0.00 0.00 0.00 58 1014.3
20260901184328 93 235 0.0 3.0 0.00 0.00 0.00 58 1014.4
20260901183320 93 324 1.0 5.0 0.00 0.00 0.00 57 1014.5
20260901182320 92 141 0.0 4.0 0.00 0.00 0.00 59 1014.6
20260901181326 92 160 1.0 3.0 0.00 0.00 0.00 59 1014.6
20260901180344 91 111 0.0 5.0 0.00 0.00 0.00 62 1014.6
20260901175322 90 121 0.0 4.0 0.00 0.00 0.00 65 1014.6
20260901174328 89 153 1.0 4.0 0.00 0.00 0.00 65 1014.8
20260901173320 88 151 1.0 5.0 0.00 0.00 0.00 69 1015.0
20260901172320 87 296 0.0 1.0 0.00 0.00 0.00 74 1015.0
20260901171348 86 115 0.0 3.0 0.00 0.00 0.00 75 1015.2
20260901170347 84 137 0.0 2.0 0.00 0.00 0.00 78 1015.2
20260901165325 83 121 0.0 0.0 0.00 0.00 0.00 81 1015.4
20260901164312 82 121 0.0 0.0 0.00 0.00 0.00 82 1015.8
20260901163330 82 120 0.0 0.0 0.00 0.00 0.00 81 1016.0
20260901162356 83 155 0.0 0.0 0.00 0.00 0.00 81 1016.1
20260901161333 82 155 0.0 1.0 0.00 0.00 0.00 82 1016.2
20260901160331 82 148 0.0 1.0 0.00 0.00 0.00 82 1016.1
20260901155330 82 128 0.0 1.0 0.00 0.00 0.00 82 1015.8
20260901154333 82 122 0.0 0.0 0.00 0.00 0.00 83 1016.0
20260901153324 82 122 0.0 0.0 0.00 0.00 0.00 83 1016.0
20260901152325 82 122 0.0 1.0 0.00 0.00 0.00 81 1016.1
20260901151317 82 13 0.0 1.0 0.00 0.00 0.00 82 1016.2
20260901150337 81 322 0.0 1.0 0.00 0.00 0.00 83 1016.2
20260901145336 81 26 0.0 2.0 0.00 0.00 0.00 82 1016.3
20260901144320 80 91 0.0 2.0 0.00 0.00 0.00 84 1016.2
20260901143312 80 329 0.0 1.0 0.00 0.00 0.00 85 1016.2
20260901142336 80 225 0.0 2.0 0.00 0.00 0.00 86 1016.3
20260901141315 80 338 0.0 0.0 0.00 0.00 0.00 88 1016.1
20260901140333 79 28 0.0 1.0 0.00 0.00 0.00 89 1016.2
20260901135313 78 160 0.0 0.0 0.00 0.00 0.00 89 1016.1
20260901134338 78 160 0.0 0.0 0.00 0.00 0.00 88 1016.0
20260901133330 79 141 0.0 1.0 0.00 0.00 0.00 87 1016.0
20260901132328 79 157 0.0 2.0 0.00 0.00 0.00 88 1016.0
20260901131329 79 317 0.0 0.0 0.00 0.00 0.00 87 1016.1
20260901130401 79 157 0.0 1.0 0.00 0.00 0.00 88 1016.1
20260901125315 79 146 0.0 3.0 0.00 0.00 0.00 88 1016.2
20260901124314 79 117 0.0 1.0 0.00 0.00 0.00 91 1016.1
20260901123331 77 300 0.0 2.0 0.00 0.00 0.00 94 1016.2
20260901122328 76 351 0.0 1.0 0.00 0.00 0.00 96 1016.4
20260901121346 75 137 0.0 1.0 0.00 0.00 0.00 97 1016.3
20260901120317 74 154 0.0 2.0 0.00 0.00 0.00 97 1016.4
20260901115314 73 141 0.0 1.0 0.00 0.00 0.00 97 1016.4
20260901114318 73 106 0.0 0.0 0.00 0.00 0.00 97 1016.5
20260901113316 72 106 0.0 0.0 0.00 0.00 0.00 97 1016.7
20260901112317 72 106 0.0 0.0 0.00 0.00 0.00 97 1016.6
20260901111319 72 106 0.0 1.0 0.00 0.00 0.00 97 1016.4
20260901110317 72 106 0.0 0.0 0.00 0.00 0.00 97 1016.5
20260901105324 72 106 0.0 0.0 0.00 0.00 0.00 97 1016.4
20260901104320 71 106 0.0 0.0 0.00 0.00 0.00 97 1016.4
20260901103341 72 106 0.0 0.0 0.00 0.00 0.00 97 1016.4
20260901102342 72 106 0.0 0.0 0.00 0.00 0.00 97 1016.5
20260901101343 72 106 0.0 0.0 0.00 0.00 0.00 97 1016.5
20260901100320 72 106 0.0 0.0 0.00 0.00 0.00 97 1016.4
20260901095315 72 106 0.0 0.0 0.00 0.00 0.00 97 1016.5
20260901094316 73 106 0.0 0.0 0.00 0.00 0.00 97 1016.3
20260901093318 72 106 0.0 0.0 0.00 0.00 0.00 97 1016.2
20260901092311 73 106 0.0 0.0 0.00 0.00 0.00 97 1016.3
20260901091310 73 106 0.0 0.0 0.00 0.00 0.00 97 1016.5
20260901090310 73 106 0.0 0.0 0.00 0.00 0.00 96 1016.7
20260901085333 73 106 0.0 0.0 0.00 0.00 0.00 96 1016.7
20260901084334 73 106 0.0 0.0 0.00 0.00 0.00 96 1016.7
20260901083311 73 106 0.0 0.0 0.00 0.00 0.00 96 1016.7
20260901082341 73 106 0.0 0.0 0.00 0.00 0.00 96 1016.8
20260901081343 73 106 0.0 0.0 0.00 0.00 0.00 96 1016.7
20260901080338 73 106 0.0 0.0 0.00 0.00 0.00 96 1016.5
20260901075318 73 106 0.0 0.0 0.00 0.00 0.00 96 1016.6
20260901074321 73 106 0.0 1.0 0.00 0.00 0.00 96 1016.7
20260901073318 73 39 0.0 0.0 0.00 0.00 0.00 96 1016.7
20260901072320 73 40 0.0 0.0 0.00 0.00 0.00 96 1016.6
20260901071318 73 40 0.0 1.0 0.00 0.00 0.00 96 1016.7
20260901070339 73 164 0.0 0.0 0.00 0.00 0.00 96 1016.8
20260901065318 73 164 0.0 0.0 0.00 0.00 0.00 95 1017.0
20260901064314 73 164 0.0 0.0 0.00 0.00 0.00 95 1017.0
20260901063334 73 164 0.0 0.0 0.00 0.00 0.00 95 1017.1
20260901062315 73 165 0.0 1.0 0.00 0.00 0.00 95 1017.2
20260901061316 74 122 0.0 1.0 0.00 0.00 0.00 95 1017.3
20260901060309 74 218 0.0 2.0 0.00 0.00 0.00 94 1017.3
20260901055311 74 131 0.0 1.0 0.00 0.00 0.00 94 1017.2
20260901054310 74 124 0.0 1.0 0.00 0.00 0.00 94 1017.4
20260901053331 74 117 0.0 3.0 0.00 0.00 0.00 94 1017.5
20260901052333 74 114 0.0 1.0 0.00 0.00 0.00 94 1017.6
20260901051328 74 71 0.0 0.0 0.00 0.00 0.00 93 1017.6
20260901050346 74 356 0.0 1.0 0.00 0.00 0.00 93 1017.7
20260901045344 74 113 0.0 0.0 0.00 0.00 0.00 93 1017.7
20260901044351 74 113 0.0 1.0 0.00 0.00 0.00 93 1017.9
20260901043324 74 112 0.0 3.0 0.00 0.00 0.00 93 1018.1
20260901042324 74 154 0.0 0.0 0.00 0.00 0.00 92 1018.3
20260901041319 74 154 0.0 0.0 0.00 0.00 0.00 92 1018.3
20260901040320 74 351 0.0 1.0 0.00 0.00 0.00 92 1018.2
20260901035341 74 337 0.0 1.0 0.00 0.00 0.00 92 1018.3
20260901034325 74 139 0.0 0.0 0.00 0.00 0.00 92 1018.3
20260901033324 74 139 0.0 1.0 0.00 0.00 0.00 92 1018.3
20260901032328 74 151 0.0 1.0 0.00 0.00 0.00 92 1018.3
20260901031329 74 117 1.0 2.0 0.00 0.00 0.00 92 1018.5
20260901030353 74 103 0.0 1.0 0.00 0.00 0.00 92 1018.4
20260901025327 73 73 0.0 2.0 0.00 0.00 0.00 91 1018.4
20260901024309 72 115 0.0 3.0 0.00 0.00 0.00 91 1018.4
20260901023335 71 13 0.0 1.0 0.00 0.00 0.00 92 1018.4
20260901022334 71 13 0.0 0.0 0.00 0.00 0.00 92 1018.4
20260901021313 71 13 0.0 0.0 0.00 0.00 0.00 91 1018.5
20260901020310 71 14 0.0 0.0 0.00 0.00 0.00 91 1018.5
20260901015312 71 14 0.0 0.0 0.00 0.00 0.00 91 1018.5
20260901014318 71 13 0.0 0.0 0.00 0.00 0.00 90 1018.5
20260901013316 72 14 0.0 0.0 0.00 0.00 0.00 90 1018.4
20260901012326 72 14 0.0 0.0 0.00 0.00 0.00 89 1018.4
20260901011329 72 13 0.0 0.0 0.00 0.00 0.00 88 1018.4
20260901010330 72 13 0.0 0.0 0.00 0.00 0.00 87 1018.3
20260901005313 72 14 0.0 0.0 0.00 0.00 0.00 86 1018.3
20260901004315 73 14 0.0 0.0 0.00 0.00 0.00 86 1018.3
20260901003313 73 14 0.0 0.0 0.00 0.00 0.00 86 1018.3
20260901002314 73 14 0.0 0.0 0.00 0.00 0.00 85 1018.1
20260901001318 73 13 0.0 0.0 0.00 0.00 0.00 84 1017.9
20260901000314 74 13 0.0 0.0 0.00 0.00 0.00 83 1017.9
20260831235332 74 13 0.0 0.0 0.00 0.00 0.00 82 1018.0
20260831234311 75 14 0.0 0.0 0.00 0.00 0.00 81 1018.0
20260831233311 76 13 0.0 0.0 0.00 0.00 0.00 79 1018.1
20260831232335 76 13 0.0 0.0 0.00 0.00 0.00 78 1018.1
20260831231314 77 13 0.0 0.0 0.00 0.00 0.00 76 1018.2
20260831230311 78 13 0.0 0.0 0.00 0.00 0.00 75 1018.3
20260831225317 78 13 0.0 0.0 0.00 0.00 0.00 73 1018.4
20260831224318 79 14 0.0 0.0 0.00 0.00 0.00 72 1018.4
20260831223316 79 13 0.0 0.0 0.00 0.00 0.00 71 1018.4
20260831222320 79 13 0.0 0.0 0.00 0.00 0.00 73 1018.5
20260831221320 79 14 0.0 0.0 0.00 0.00 0.00 72 1018.5
20260831220313 79 16 0.0 1.0 0.00 0.00 0.00 72 1018.8
20260831215321 79 43 0.0 0.0 0.00 0.00 0.00 74 1018.8
20260831214322 79 347 0.0 1.0 0.00 0.00 0.00 71 1018.8
20260831213321 79 342 0.0 1.0 0.00 0.00 0.00 74 1018.9
20260831212324 79 17 0.0 1.0 0.00 0.00 0.00 74 1018.9
20260831211325 79 342 0.0 0.0 0.00 0.00 0.00 72 1018.8
20260831210323 79 26 0.0 0.0 0.00 0.00 0.00 73 1018.9
20260831205310 79 26 0.0 1.0 0.00 0.00 0.00 71 1018.9
20260831204313 80 356 0.0 0.0 0.00 0.00 0.00 71 1019.0